Volver al catálogo

CZ-6A DEB

ActivoPO
NORAD 61365·DEBRIS·🇨🇳 China

Lanzado Aug 6, 2024 desde Taiyuan Satellite Launch Center

Loading…

Próximos Pases (próximas 24 horas)

TLE

ActualizadoSource: Space-Track

Época: Sep 14, 2026, 11:04 UTC

1 61365U 24140WE  26257.46167537  .00000568  00000-0  73793-4 0  9995
2 61365  89.1157 269.1135 0167583 217.6895 141.2490 14.69808640108645

Sigue CZ-6A DEB en tiempo real con AllMySat

Download on the App Store